Location: Bailleul
(50.3375°N, 2.8513°E)
Time: 08:19:56
(UTC+00:00)

deb Kosmos-252 - Visible Passes

Search period start: 29 January 2022 00:00
Search period end: 08 February 2022 00:00
Orbit: 718 x 1922 km, 62.3° (Epoch: 28 January)

Date Brightness Start Highest point End Pass type
(mag) Time Alt. Az. Time Alt. Az. Time Alt. Az.
29 Jan ? 17:52:02 10° NW 17:55:53 22° N 17:58:35 14° NE visible
29 Jan ? 19:48:02 10° NW 19:50:41 29° NNW 19:50:41 29° NNW visible
30 Jan ? 18:09:44 10° NW 18:13:45 24° NNE 18:15:38 19° NE visible
30 Jan ? 20:05:24 10° NW 20:07:43 28° NNW 20:07:43 28° NNW visible
31 Jan ? 18:27:16 10° NW 18:31:32 28° NNE 18:32:43 25° NE visible
31 Jan ? 20:22:47 10° NW 20:24:48 25° NW 20:24:48 25° NW visible
01 Feb ? 18:44:42 10° NW 18:49:14 36° NNE 18:49:50 35° NE visible
01 Feb ? 20:40:14 10° NW 20:41:55 21° WNW 20:41:55 21° WNW visible
02 Feb ? 19:02:04 10° NW 19:06:50 49° NE 19:06:59 49° NE visible
02 Feb ? 20:57:48 10° WNW 20:59:05 17° WNW 20:59:05 17° WNW visible
03 Feb ? 17:23:47 10° NW 17:27:53 25° NNE 17:32:00 10° ENE visible
03 Feb ? 19:19:26 10° NW 19:24:12 70° NNE 19:24:12 70° NNE visible
03 Feb ? 21:15:38 10° WNW 21:16:18 13° WNW 21:16:18 13° WNW visible
04 Feb ? 17:41:18 10° NW 17:45:38 30° NNE 17:49:23 13° E visible
04 Feb ? 19:36:48 10° NW 19:41:29 76° W 19:41:29 76° W visible
05 Feb ? 17:58:42 10° NW 18:03:18 38° NNE 18:06:45 17° E visible
05 Feb ? 19:54:16 10° NW 19:58:52 50° WSW 19:58:52 50° WSW visible
06 Feb ? 18:16:03 10° NW 18:20:51 53° NE 18:24:14 21° ESE visible
06 Feb ? 20:11:53 10° WNW 20:16:18 32° WSW 20:16:21 32° SW visible
07 Feb ? 18:33:23 10° NW 18:38:18 78° NE 18:41:51 22° SE visible
07 Feb ? 20:29:48 10° WNW 20:33:29 20° WSW 20:34:00 20° SW visible
